Printer-friendly version

IAU Minor Planet Center

Minor Planet Center

MPEC 2006-Y53 : 2006 YT13

The following Minor Planet Electronic Circular may be linked-to from your own Web pages, but must not otherwise be redistributed electronically.


Read MPEC 2006-Y52 Read MPEC 2006-Y54


M.P.E.C. 2006-Y53                                Issued 2006 Dec. 27, 14:19 UT

     The Minor Planet Electronic Circulars contain information on unusual
         minor planets and routine data on comets.  They are published
   on behalf of Commission 20 of the International Astronomical Union by the
          Minor Planet Center, Smithsonian Astrophysical Observatory,
                          Cambridge, MA 02138, U.S.A.

             Prepared using the Tamkin Foundation Computer Network

                              MPC@CFA.HARVARD.EDU
          URL http://cfa-www.harvard.edu/iau/mpc.html  ISSN 1523-6714

                                   2006 YT13

Observations:
     K06Y13T* C2006 12 26.44321 12 34 56.85 +08 39 05.4          19.6 V EY053703
     K06Y13T  C2006 12 26.45509 12 35 01.60 +08 39 25.9          19.5 V EY053703
     K06Y13T  C2006 12 26.46699 12 35 06.32 +08 39 45.3          19.8 V EY053703
     K06Y13T  C2006 12 26.47887 12 35 10.89 +08 40 06.3          19.9 V EY053703
     K06Y13T  C2006 12 26.52406 12 35 28.57 +08 41 24.4          19.4 V EY053703
     K06Y13T  C2006 12 26.53209 12 35 31.77 +08 41 37.7          19.6 V EY053703
     K06Y13T  C2006 12 26.54006 12 35 34.90 +08 41 51.2          19.4 V EY053703
     K06Y13T  C2006 12 26.54804 12 35 38.04 +08 42 04.9          19.4 V EY053703
     K06Y13T  C2006 12 27.11523 12 39 25.99 +08 58 17.7                 EY053246
     K06Y13T  C2006 12 27.11573 12 39 26.14 +08 58 19.4                 EY053246
     K06Y13T  C2006 12 27.11619 12 39 26.36 +08 58 20.1                 EY053246
     K06Y13T  C2006 12 27.11668 12 39 26.50 +08 58 20.0                 EY053246
     K06Y13T  C2006 12 27.11783 12 39 27.03 +08 58 22.9                 EY053246
     K06Y13T  C2006 12 27.11932 12 39 27.63 +08 58 25.7                 EY053246
     K06Y13T  C2006 12 27.12048 12 39 28.08 +08 58 27.2                 EY053246
     K06Y13T  C2006 12 27.19059 12 39 56.15 +09 00 29.5          19.5 R EY053461
     K06Y13T  C2006 12 27.19336 12 39 57.24 +09 00 34.2                 EY053461
     K06Y13T  C2006 12 27.19609 12 39 58.33 +09 00 39.2                 EY053461
     K06Y13T  C2006 12 27.19881 12 39 59.43 +09 00 43.7                 EY053461
     K06Y13T  C2006 12 27.41297 12 41 27.19 +09 06 58.2          19.1 R EY053854
     K06Y13T  C2006 12 27.41681 12 41 28.71 +09 07 06.5          19.2 R EY053854
     K06Y13T  C2006 12 27.42065 12 41 30.17 +09 07 12.7          19.3 R EY053854
     K06Y13T  C2006 12 27.46395 12 41 47.51 +09 08 27.5          19.2 R EY053H36
     K06Y13T  C2006 12 27.46465 12 41 47.97 +09 08 30.3          19.4 V EY053703
     K06Y13T  C2006 12 27.46627 12 41 48.73 +09 08 31.7          19.6 V EY053703
     K06Y13T  C2006 12 27.46822 12 41 49.24 +09 08 34.5          19.5 R EY053H36
     K06Y13T  C2006 12 27.47251 12 41 50.92 +09 08 42.7          19.3 R EY053H36
     K06Y13T  C2006 12 27.47679 12 41 52.68 +09 08 49.1          19.4 R EY053H36
     K06Y13T  C2006 12 27.48149 12 41 54.54 +09 08 57.5          19.1 R EY053H36

Observer details:
246 Klet Observatory-KLENOT.  Observers M. Tichy, J. Ticha.  Measurer M. Tichy.
    1.06-m KLENOT Telescope + CCD.
461 Szeged University, Piszkesteto Stn. (Konkoly).  Observer K. Sarneczky.
    0.60-m Schmidt + CCD.
703 Catalina Sky Survey.  Observer A. R. Gibbs.  Measurers E. C. Beshore,
    E. J. Christensen, G. J. Garradd, A. R. Gibbs, A. D. Grauer, R. E. Hill,
    R. A. Kowalski, S. M. Larson, R. H. McNaught.  0.68-m Schmidt + CCD.
854 Sabino Canyon Observatory, Tucson.  Observer J. E. McGaha.  0.36-m f/10.0
    Schmidt-Cassegrain + CCD.
H36 Sandlot Observatory, Scranton.  Observer G. Hug.  0.30-m
    Schmidt-Cassegrain + CCD.

Orbital elements:
2006 YT13                                           PHA, Earth MOID = 0.0480 AU
Epoch 2007 Apr. 10.0 TT = JDT 2454200.5                 MPC
M  20.22535              (2000.0)            P               Q
n   0.66220374     Peri.  106.34473     -0.55105866     +0.62744076
a   1.3035918      Node   116.55179     -0.77603062     -0.62769624
e   0.4193008      Incl.   37.95210     +0.30677488     -0.46077708
P   1.49           H   18.4           G   0.15           U   9
Residuals in seconds of arc
061226 703  0.4-  0.1+    061227 246  0.1-  0.5+    061227 854  0.3+  0.7+
061226 703  0.8+  0.2+    061227 246  0.9-  0.5-    061227 854  1.1-  0.1+
061226 703  1.4+  0.8-    061227 246  0.1+  0.4+    061227 H36  0.2+  0.2+
061226 703  0.0   0.2-    061227 246  0.1+  0.6+    061227 703  0.6-  0.5+
061226 703  1.0-  0.4+    061227 246  0.1-  0.1+    061227 703  1.0+  1.0-
061226 703  0.3-  0.0     061227 461  0.5+  0.2+    061227 H36  0.3+  0.3-
061226 703  0.3-  0.2-    061227 461  0.2+  0.1+    061227 H36  0.4-  0.4+
061226 703  0.2-  0.2-    061227 461  0.2+  0.4+    061227 H36  0.1+  0.7-
061227 246  0.1+  0.3-    061227 461  0.3+  0.2+    061227 H36  0.4-  0.5-
061227 246  0.6-  0.6+    061227 854  0.8+  0.9-

Ephemeris:
2006 YT13                a,e,i = 1.30, 0.42, 38                  q = 0.7570
Date    TT    R. A. (2000) Decl.     Delta      r     Elong.  Phase     V
2006 12 21    12 01.42   +06 15.6    0.617    1.171    91.0    57.2    19.8
2006 12 31    13 06.93   +10 54.8    0.531    1.102    88.1    63.1    19.5
2007 01 10    14 28.75   +15 57.8    0.491    1.032    81.5    70.4    19.4
2007 01 20    15 56.94   +19 21.7    0.504    0.964    72.8    77.2    19.5
2007 01 30    17 15.68   +20 01.5    0.564    0.899    64.4    81.1    19.8

Timothy B. Spahr             (C) Copyright 2006 MPC           M.P.E.C. 2006-Y53

Read MPEC 2006-Y52 Read MPEC 2006-Y54


Our Web policy. Index to the CBAT/MPC/ICQ pages.


Valid HTML 4.01!